Date String (YYYY-MM-DD hh:mm:ss) UTC,Instrument flags,absolute air pressure of the measurement (hPa),sample flow rate (lpm),inlet stack bypass flow (lpm),air temperature of the measurement (°C),ambient temperature measured by the external sensor (°C),aerosol sample conditioner tube jacket temperature (°C),OPC LED temperature (°C),internal box temperature (°C),relative humidity of the measurement (%),span deviation,mass concentration of particles derived from Lorenz-Mie calculation of OPC scattering (μg/m³),mass concentration of particles derived from Lorenz-Mie calculation of OPC scattering (μg/m³),mass concentration of particles derived from Lorenz-Mie calculation of OPC scattering (μg/m³)
DateTimeUTC,F1_M11,P_M11,Q1_M11,Q2_M11,T1_M11,T2_M11,T3_M11,T4_M11,T5_M11,U1_M11,ZSPAN_M11,X0_M11,X2_M11,X1_M11
2024-06-17 20:00:00,SystemResetWarning,0817.0,5.01,000.00,029.2,028.3,000.0,037.6,031.0,033.8,0002.1,0027.78,0009.99,0008.41
2024-06-17 20:01:00,SystemResetWarning,0817.0,5.00,000.00,029.3,028.5,000.0,037.6,031.1,033.6,0001.9,0027.11,0010.03,0008.48
2024-06-17 20:02:00,SystemResetWarning,0817.0,4.99,000.00,029.3,028.7,000.0,037.6,031.2,033.9,0002.1,0026.39,0010.15,0008.58
2024-06-17 20:03:00,SystemResetWarning,0816.9,4.99,000.00,029.4,028.9,000.0,037.6,031.3,034.3,0002.0,0026.10,0010.25,0008.63
2024-06-17 20:04:00,SystemResetWarning,0816.9,4.99,000.00,029.5,029.0,000.0,037.7,031.4,034.0,0001.8,0026.01,0010.29,0008.65
2024-06-17 20:05:00,SystemResetWarning,0816.9,5.01,000.00,029.6,029.1,000.0,037.7,031.4,034.1,0001.5,0025.65,0010.34,0008.67
2024-06-17 20:06:00,SystemResetWarning,0816.9,5.01,000.00,029.7,029.3,000.0,037.7,031.5,034.1,0001.4,0024.24,0010.35,0008.69
2024-06-17 20:07:00,SystemResetWarning,0816.9,5.01,000.00,029.7,029.4,000.0,037.8,031.6,033.6,0001.4,0024.87,0010.36,0008.71
2024-06-17 20:08:00,SystemResetWarning,0816.9,5.00,000.00,029.8,029.1,000.0,037.9,031.4,033.4,0001.3,0025.67,0010.42,0008.71
2024-06-17 20:09:00,SystemResetWarning,0816.9,4.98,000.00,029.5,027.0,000.0,037.9,030.4,033.5,0001.1,0026.29,0010.42,0008.73
2024-06-17 20:10:00,SystemResetWarning,0816.9,5.02,000.00,029.1,025.5,000.0,037.9,029.7,034.3,0001.1,0026.73,0010.45,0008.75
2024-06-17 20:11:00,SystemResetWarning,0816.9,5.00,000.00,028.9,025.7,000.0,037.8,029.7,034.8,0001.0,0026.31,0010.50,0008.79
2024-06-17 20:12:00,SystemResetWarning,0816.8,4.99,000.00,028.8,026.2,000.0,037.7,030.0,034.8,0000.8,0028.25,0010.63,0008.82
2024-06-17 20:13:00,SystemResetWarning,0816.9,5.00,000.00,028.9,026.7,000.0,037.6,030.2,034.7,0000.8,0028.71,0010.67,0008.82
2024-06-17 20:14:00,SystemResetWarning,0816.9,5.00,000.00,028.9,027.2,000.0,037.5,030.5,035.2,0000.7,0029.61,0010.59,0008.82
2024-06-17 20:15:00,SystemResetWarning,0816.9,5.00,000.00,029.0,027.6,000.0,037.5,030.6,035.1,0000.8,0031.87,0010.66,0008.84
2024-06-17 20:16:00,SystemResetWarning,0816.9,5.01,000.00,029.1,027.9,000.0,037.5,030.8,034.4,0000.7,0032.11,0010.66,0008.85
2024-06-17 20:17:00,SystemResetWarning,0816.9,5.00,000.00,029.1,028.2,000.0,037.5,030.9,034.3,0000.6,0033.13,0010.71,0008.90
2024-06-17 20:18:00,SystemResetWarning,0816.9,4.99,000.00,029.2,028.5,000.0,037.5,031.1,034.1,0000.5,0032.72,0010.84,0008.96
2024-06-17 20:19:00,SystemResetWarning,0816.8,4.99,000.00,029.3,028.7,000.0,037.5,031.2,034.0,0000.2,0031.85,0010.91,0009.02
2024-06-17 20:20:00,SystemResetWarning,0816.9,5.00,000.00,029.4,028.8,000.0,037.6,031.3,033.9,0000.5,0031.08,0010.94,0009.05
2024-06-17 20:21:00,SystemResetWarning,0816.8,4.99,000.00,029.5,029.0,000.0,037.6,031.4,033.8,0000.5,0030.84,0010.95,0009.04
2024-06-17 20:22:00,SystemResetWarning,0816.8,5.00,000.00,029.5,029.1,000.0,037.6,031.4,033.9,0000.8,0030.86,0010.93,0009.03
2024-06-17 20:23:00,SystemResetWarning,0816.8,5.00,000.00,029.6,029.3,000.0,037.7,031.5,033.7,0000.5,0029.35,0010.89,0009.02
2024-06-17 20:24:00,SystemResetWarning,0816.8,5.00,000.00,029.7,029.0,000.0,037.8,031.4,033.5,0000.2,0029.52,0010.87,0009.02
2024-06-17 20:25:00,SystemResetWarning,0816.7,4.99,000.00,029.4,026.9,000.0,037.8,030.4,033.8,-000.4,0029.27,0010.89,0009.00
2024-06-17 20:26:00,SystemResetWarning,0816.7,5.01,000.00,029.0,025.6,000.0,037.8,029.8,035.0,-000.6,0029.06,0010.89,0008.99
2024-06-17 20:27:00,SystemResetWarning,0816.7,5.01,000.00,028.9,025.8,000.0,037.7,029.8,036.1,-000.4,0029.26,0010.89,0008.97
2024-06-17 20:28:00,SystemResetWarning,0816.7,4.99,000.00,028.8,026.3,000.0,037.6,030.0,035.8,-000.4,0028.98,0010.82,0008.91
2024-06-17 20:29:00,SystemResetWarning,0816.6,4.99,000.00,028.8,026.8,000.0,037.5,030.3,035.8,-000.5,0028.90,0010.64,0008.85
2024-06-17 20:30:00,SystemResetWarning,0816.6,5.00,000.00,028.9,027.2,000.0,037.5,030.5,035.0,-000.5,0028.84,0010.61,0008.81
2024-06-17 20:31:00,SystemResetWarning,0816.6,5.01,000.00,029.0,027.6,000.0,037.5,030.7,034.9,-000.6,0029.01,0010.68,0008.79
2024-06-17 20:32:00,SystemResetWarning,0816.6,4.99,000.00,029.0,027.9,000.0,037.5,030.8,035.2,-000.6,0029.33,0010.74,0008.76
2024-06-17 20:33:00,SystemResetWarning,0816.6,4.99,000.00,029.1,028.2,000.0,037.5,030.9,034.7,-001.2,0030.74,0010.79,0008.73
2024-06-17 20:34:00,SystemResetWarning,0816.6,5.00,000.00,029.2,028.5,000.0,037.5,031.0,034.5,-001.0,0032.96,0010.85,0008.71
2024-06-17 20:35:00,SystemResetWarning,0816.5,5.00,000.00,029.3,028.7,000.0,037.5,031.1,034.3,-000.8,0032.60,0010.84,0008.67
2024-06-17 20:36:00,SystemResetWarning,0816.5,5.01,000.00,029.3,028.8,000.0,037.5,031.2,033.9,-000.4,0033.20,0010.87,0008.63
2024-06-17 20:37:00,SystemResetWarning,0816.5,5.01,000.00,029.4,029.0,000.0,037.6,031.3,033.5,-000.6,0032.77,0010.85,0008.64
2024-06-17 20:38:00,SystemResetWarning,0816.5,5.01,000.00,029.5,029.1,000.0,037.6,031.4,033.3,-000.6,0031.62,0010.87,0008.67
2024-06-17 20:39:00,SystemResetWarning,0816.5,5.00,000.00,029.6,029.3,000.0,037.6,031.5,033.6,-000.4,0031.78,0010.98,0008.70
2024-06-17 20:40:00,SystemResetWarning,0816.5,4.98,000.00,029.7,029.0,000.0,037.7,031.4,033.5,-000.3,0032.32,0011.12,0008.72
2024-06-17 20:41:00,SystemResetWarning,0816.4,5.01,000.00,029.4,027.1,000.0,037.8,030.5,033.4,-000.0,0034.72,0011.17,0008.71
2024-06-17 20:42:00,SystemResetWarning,0816.3,5.00,000.00,029.1,025.9,000.0,037.8,029.9,034.1,0000.3,0035.57,0011.15,0008.71
2024-06-17 20:43:00,SystemResetWarning,0816.2,5.02,000.00,028.9,026.0,000.0,037.7,029.9,034.4,0000.5,0034.85,0011.13,0008.70
2024-06-17 20:44:00,SystemResetWarning,0816.3,4.99,000.00,028.9,026.4,000.0,037.6,030.1,034.7,0000.8,0034.72,0011.15,0008.72
2024-06-17 20:45:00,SystemResetWarning,0816.2,4.99,000.00,028.9,026.9,000.0,037.5,030.3,034.7,0001.0,0034.80,0011.16,0008.72
2024-06-17 20:46:00,SystemResetWarning,0816.2,5.00,000.00,028.9,027.3,000.0,037.5,030.5,034.7,0001.1,0035.82,0011.23,0008.72
2024-06-17 20:47:00,SystemResetWarning,0816.2,5.01,000.00,029.0,027.7,000.0,037.5,030.7,034.3,0001.2,0035.31,0011.18,0008.73
2024-06-17 20:48:00,SystemResetWarning,0816.2,5.01,000.00,029.1,028.1,000.0,037.5,030.8,034.2,0001.5,0036.32,0011.13,0008.69
2024-06-17 20:49:00,SystemResetWarning,0816.2,5.00,000.00,029.1,028.3,000.0,037.5,031.0,034.2,0001.7,0038.93,0011.10,0008.63
2024-06-17 20:50:00,SystemResetWarning,0816.3,4.99,000.00,029.2,028.6,000.0,037.5,031.1,033.7,0001.6,0040.31,0011.10,0008.59
2024-06-17 20:51:00,SystemResetWarning,0816.3,5.00,000.00,029.3,028.8,000.0,037.5,031.2,033.5,0001.3,0041.59,0011.00,0008.56
2024-06-17 20:52:00,SystemResetWarning,0816.2,5.01,000.00,029.4,029.0,000.0,037.6,031.3,033.2,0001.1,0041.64,0010.94,0008.55
2024-06-17 20:53:00,SystemResetWarning,0816.3,5.01,000.00,029.5,029.1,000.0,037.6,031.4,033.1,0000.6,0041.21,0010.88,0008.50
2024-06-17 20:54:00,SystemResetWarning,0816.3,5.01,000.00,029.6,029.3,000.0,037.6,031.5,033.6,0000.2,0041.50,0010.85,0008.48
2024-06-17 20:55:00,SystemResetWarning,0816.3,4.99,000.00,029.7,029.0,000.0,037.7,031.3,034.0,-000.1,0042.22,0010.77,0008.42
2024-06-17 20:56:00,SystemResetWarning,0816.1,5.00,000.00,029.4,026.9,000.0,037.8,030.4,033.3,-000.1,0040.89,0010.70,0008.36
2024-06-17 20:57:00,SystemResetWarning,0816.1,5.01,000.00,029.0,025.6,000.0,037.8,029.7,033.9,0000.1,0039.21,0010.56,0008.29
2024-06-17 20:58:00,SystemResetWarning,0816.1,5.02,000.00,028.8,025.9,000.0,037.7,029.8,034.1,0000.2,0041.38,0010.54,0008.28
2024-06-17 20:59:00,SystemResetWarning,0816.1,5.00,000.00,028.8,026.4,000.0,037.6,030.0,034.8,0000.2,0039.21,0010.59,0008.27
